Location: Kalberh�ni
(46.4610°N, 7.2453°E)
Time: 21:00:01
(UTC+00:00)

X-37B - Pass Details

Date: 26 September 2021
Orbit: 322 x 349 km, 45.0° (Epoch: 28 October)

Event Time Altitude Azimuth Distance (km) Brightness Sun altitude
Exits shadow 02:58:50 12° 105° (ESE) 1,144 3.5 -24.8°
Drops below altitude 10° 02:59:07 10° 102° (ESE) 1,233 3.8 -24.8°
Enters shadow 03:53:39 -72° 261° (W) 12,495 8.2 -16.1°
Maximum altitude 04:32:05 58° 172° (S) 380 0.5 -9.6°
